Holland, MI

2:01 AM EST on February 14, 2016 (GMT -0500)
Tulip City

Weather History for KBIV - May, 2013

Change the Weather History Date:

Monday, May 20, 2013

  Actual Average Record
Temperature  
Mean Temperature 80 °F 60 °F  
Max Temperature 90 °F 70 °F 92 °F (2012)
Min Temperature 70 °F 50 °F 32 °F (2002)
Degree Days  
Heating Degree Days 0 6  
Month to date heating degree days 81 176  
Since 1 July heating degree days 5884 6055  
Cooling Degree Days 15 1  
Month to date cooling degree days 44 14  
Year to date cooling degree days 50 18  
Growing Degree Days 29 (Base 50)    
Moisture  
Dew Point 63 °F    
Average Humidity 57    
Maximum Humidity 79    
Minimum Humidity 34    
Precipitation  
Precipitation 0.00 in 0.11 in 0.54 in (1983)
Month to date precipitation 0.33 2.15  
Year to date precipitation 16.17 11.56  
Sea Level Pressure  
Sea Level Pressure 29.80 in    
Wind  
Wind Speed 11 mph (South)    
Max Wind Speed 20 mph    
Max Gust Speed 35 mph    
Visibility 10 miles    
Events      
T = Trace of Precipitation, MM = Missing Value Source: NWS Daily Summary

Daily Weather History Graph

Daily Weather History Graph

Search for Another Location

Airport or City:

Trip Planner

Search our weather history database for the weather conditions in past years. The results will help you decide how hot, cold, wet, or windy it might be!

Date:

Astronomy

May. 20, 2013 Rise Set
Actual Time 6:16 AM EDT 9:05 PM EDT
Civil Twilight 5:43 AM EDT 9:38 PM EDT
Nautical Twilight 5:02 AM EDT 10:20 PM EDT
Astronomical Twilight 4:14 AM EDT 11:09 PM EDT
Moon 4:06 PM EDT (5/20) 3:18 AM EDT (5/20)
Length of Visible Light 15h 54m
Length of Day
14h 48m
Waxing Gibbous, 75% of the Moon is Illuminated
May 20
Waxing Gibbous
May 25
Full
May 31
Last Quarter
Jun 8
New
Jun 16
First Quarter

Hourly Weather History & Observations

Time (EDT) Temp. Heat Index Dew Point Humidity Pressure Visibility Wind Dir Wind Speed Gust Speed Precip Events Conditions
12:53 AM 71.1 °F - 60.1 °F 68% 29.83 in 10.0 mi SE 6.9 mph - N/A   Clear
1:53 AM 70.0 °F - 61.0 °F 73% 29.82 in 10.0 mi SE 9.2 mph - N/A   Clear
2:53 AM 71.1 °F - 62.1 °F 73% 29.83 in 10.0 mi SE 6.9 mph - N/A   Clear
4:53 AM 70.0 °F - 62.1 °F 76% 29.82 in 10.0 mi SE 8.1 mph - N/A   Clear
5:53 AM 72.0 °F - 63.0 °F 73% 29.79 in 10.0 mi SSE 10.4 mph - N/A   Clear
7:53 AM 73.9 °F - 66.0 °F 76% 29.83 in 8.0 mi SSE 8.1 mph - N/A   Clear
8:53 AM 77.0 °F - 66.9 °F 71% 29.85 in 9.0 mi South 11.5 mph - N/A   Scattered Clouds
9:53 AM 80.1 °F 82.7 °F 68.0 °F 67% 29.83 in 10.0 mi South 12.7 mph - N/A   Partly Cloudy
10:17 AM 80.6 °F 83.2 °F 68.0 °F 65% 29.84 in 10.0 mi South 11.5 mph - N/A   Mostly Cloudy
10:33 AM 82.4 °F 85.4 °F 68.0 °F 62% 29.83 in 10.0 mi SSE 11.5 mph - N/A   Scattered Clouds
10:40 AM 80.6 °F 83.2 °F 68.0 °F 65% 29.83 in 10.0 mi SSE 12.7 mph - N/A   Mostly Cloudy
10:53 AM 81.0 °F 83.8 °F 68.0 °F 65% 29.82 in 10.0 mi SSW 9.2 mph - N/A   Mostly Cloudy
11:30 AM 84.2 °F 87.3 °F 68.0 °F 58% 29.81 in 10.0 mi South 11.5 mph - N/A   Scattered Clouds
11:53 AM 86.0 °F 89.4 °F 68.0 °F 55% 29.81 in 10.0 mi SSE 15.0 mph 20.7 mph N/A   Partly Cloudy
12:53 PM 87.1 °F 89.2 °F 66.0 °F 49% 29.79 in 10.0 mi South 11.5 mph 23.0 mph N/A   Partly Cloudy
1:53 PM 86.0 °F 86.8 °F 63.0 °F 46% 29.80 in 10.0 mi WSW 15.0 mph 20.7 mph N/A   Mostly Cloudy
2:53 PM 82.9 °F 83.7 °F 62.1 °F 49% 29.78 in 10.0 mi SW 17.3 mph 26.5 mph N/A   Clear
3:53 PM 86.0 °F 86.1 °F 61.0 °F 43% 29.78 in 10.0 mi SW 17.3 mph 25.3 mph N/A   Clear
4:53 PM 88.0 °F 87.1 °F 59.0 °F 37% 29.76 in 10.0 mi SW 16.1 mph 29.9 mph N/A   Clear
5:53 PM 88.0 °F 86.7 °F 57.0 °F 35% 29.76 in 10.0 mi SSW 19.6 mph 28.8 mph N/A   Clear
6:53 PM 88.0 °F 86.5 °F 55.9 °F 34% 29.74 in 10.0 mi SSW 13.8 mph 27.6 mph N/A   Clear
7:53 PM 87.1 °F 85.9 °F 57.0 °F 36% 29.74 in 10.0 mi SSW 15.0 mph 19.6 mph N/A   Clear
8:53 PM 82.0 °F 81.6 °F 55.9 °F 41% 29.75 in 10.0 mi SW 6.9 mph - N/A   Clear
9:53 PM 77.0 °F - 57.0 °F 50% 29.75 in 10.0 mi SE 3.5 mph - N/A   Clear
10:53 PM 75.0 °F - 61.0 °F 62% 29.76 in 10.0 mi SSE 6.9 mph - N/A   Clear
11:53 PM 75.0 °F - 62.1 °F 64% 29.75 in 10.0 mi South 5.8 mph - N/A   Clear